Weather in La Condamine

Monaco     43°44′05″N   7°25′29″E
temp.,
°C
wind,
m/s
gust,
m/s
humid.,
%
clouds,
%
prec.,
mm/h
press.,
hPa
HPBL,
m
19 september, sun
sun1923:00+23nnw227225 0.0 1011138
02:00+22e017098 0.1 1010216
05:00+21nnw328166 2.7 1010271
08:00+21sw56713 3.7 1010661
11:00+22sw76690 0.0 1009579
14:00+25sw1010490 0.0 1007539
17:00+26wsw1113450 0.0 1004474
20:00+25nnw11500 0.0 100641
20 september, mon
mon2023:00+22nnw336033 0.0 1009339
02:00+21nw22455 0.0 1010167
05:00+20wnw44490 0.0 1010225
08:00+20nw22460 0.0 1012196
11:00+21sse22562 0.0 1013316
14:00+21s33650 0.0 1014585
17:00+21ssw326339 0.2 1014507
20:00+22w226024 0.6 1015320
21 september, tue
tue2123:00+22n215752 0.0 1017252
02:00+21nne225799 0.0 1018261
05:00+21nne2256100 0.1 1018215
08:00+21n2153100 0.1 1019271
11:00+21sse325293 0.0 1020341
14:00+21e445893 0.0 1021453
17:00+22ese446564 0.0 1020561
20:00+22ene2263100 0.0 1021410
22 september, wed
wed2223:00+22n325842 0.0 1022191
02:00+22n43520 0.0 1021162
05:00+21nw3250100 0.0 1021143
08:00+21n32470 0.0 1020135
11:00+22se32520 0.0 1020337
14:00+20se22642 0.0 1019361
17:00+21ese10627 0.0 1018205
20:00+22nnw11574 0.0 1017129
23 september, thu
thu2323:00+22nnw21580 0.0 1017180
02:00+22nne225833 0.0 1017231
05:00+21n10582 0.0 1016237
08:00+21nnw11575 0.0 1016153
11:00+21s21605 0.0 1017338
14:00+21s33675 0.0 1016426
17:00+21s116521 0.0 1016460
20:00+22sw336632 0.0 1015321